Flight Track Log - Related Links

Times and Time Zones

All times are in EDT time to prevent confusion due to time zone crossing. See the GJS3710 flight status page for this flight to view local times or setup timezone preferences in your user account.

Time Position Orientation Groundspeed Altitude Reporting Facility
EDT Latitude Longitude Course Direction KTS MPH feet Rate Location/Type
Tue 21:40:17 41.9500 -87.9000 66° East 142 163 1,900  Level Chicago TRACON
Tue 21:41:17 41.9500 -87.8333 90° East 244 281 3,600 2,048 Climbing Chicago TRACON
Tue 21:42:00 42.1064 -87.5135 63° Northeast  Level FlightAware Approximate
Tue 21:42:23 41.9500 -87.7167 90° East 296 341 6,200  Level Chicago TRACON
Tue 21:43:00 42.1561 -87.3819 66° East  Level FlightAware Approximate
Tue 21:43:23 42.0000 -87.6167 56° Northeast 316 364 9,100  Level Chicago TRACON
Tue 21:44:00 42.2010 -87.2472 66° East  Level FlightAware Approximate
Tue 21:45:00 42.2459 -87.1124 66° East  Level FlightAware Approximate
Tue 21:45:46 42.1203 -87.3797 56° Northeast 338 389 14,600  Level Chicago Center
Tue 21:46:48 42.1792 -87.2617 56° Northeast 374 430 16,600 1,902 Climbing Chicago Center
Tue 21:47:49 42.2028 -87.1244 77° East 388 447 18,500 1,869 Climbing Chicago Center
Tue 21:48:50 42.1950 -86.9747 94° East 398 458 20,400 1,805 Climbing Chicago Center
Tue 21:49:52 42.1842 -86.8256 96° East 401 461 22,200 1,756 Climbing Chicago Center
Tue 21:50:53 42.1708 -86.6592 96° East 415 478 24,000 1,525 Climbing Chicago Center
Tue 21:51:54 42.1600 -86.5000 95° East 424 488 25,300 1,268 Climbing Chicago Center
Tue 21:52:56 42.1461 -86.3375 97° East 434 499 26,600 1,122 Climbing Chicago Center
Tue 21:53:57 42.1319 -86.1700 96° East 447 514 27,600 1,082 Climbing Chicago Center
Tue 21:54:58 42.1353 -85.9617 89° East 464 534 28,800 1,024 Climbing Chicago Center
Tue 21:56:00 42.1475 -85.8039 84° East 466 536 29,700 927 Climbing Chicago Center
Tue 21:57:01 42.1625 -85.6303 83° East 469 540 30,700 984 Climbing Chicago Center
Tue 21:58:02 42.1764 -85.4547 84° East 473 544 31,700 976 Climbing Chicago Center
Tue 21:59:04 42.1892 -85.2800 84° East 471 542 32,700 987 Climbing Chicago Center
Tue 21:59:21 42.1981 -85.2142 80° East 477 549 33,000 1,013 Climbing Cleveland Center
Tue 22:00:21 42.2111 -85.0411 84° East 477 549 34,000 1,000 Climbing Cleveland Center
Tue 22:01:21 42.2242 -84.8653 84° East 470 541 35,000 500 Climbing Cleveland Center
Tue 22:02:21 42.2367 -84.6922 84° East 470 541 35,000  Level Cleveland Center
Tue 22:03:21 42.2456 -84.4964 86° East 470 541 35,000  Level Cleveland Center
Tue 22:04:21 42.2578 -84.3203 85° East 470 541 35,000  Level Cleveland Center
Tue 22:05:21 42.2694 -84.1469 85° East 470 541 35,000  Level Cleveland Center
Tue 22:06:21 42.2811 -83.9681 85° East 470 541 35,000  Level Cleveland Center
Tue 22:07:21 42.2925 -83.7917 85° East 470 541 35,000 300 Level Cleveland Center
Tue 22:08:21 42.3025 -83.6517 84° East 470 541 35,600 750 Climbing Cleveland Center
Tue 22:09:21 42.3139 -83.4558 85° East 470 541 36,500 700 Climbing Cleveland Center
Tue 22:10:21 42.3242 -83.2822 85° East 463 533 37,000 167 Climbing Cleveland Center
Tue 22:12:21 42.3444 -82.9344 85° East 461 531 37,000  Level Cleveland Center
Tue 22:13:21 42.3542 -82.7606 86° East 461 531 37,000  Level Cleveland Center
Tue 22:14:21 42.3614 -82.5839 87° East 461 531 37,000  Level Cleveland Center
Tue 22:15:21 42.3706 -82.4128 86° East 461 531 37,000  Level Cleveland Center
Tue 22:16:21 42.3794 -82.2358 86° East 461 531 37,000  Level Cleveland Center
Tue 22:18:21 42.3989 -81.8708 86° East 455 524 37,000  Level Cleveland Center
Tue 22:19:21 42.4089 -81.6967 85° East 461 531 37,000  Level Cleveland Center
Tue 22:20:21 42.4147 -81.5225 87° East 462 532 37,000  Level Cleveland Center
Tue 22:21:21 42.4222 -81.3567 86° East 462 532 37,000  Level Cleveland Center
Tue 22:22:21 42.4272 -81.1964 88° East 462 532 37,000  Level Cleveland Center
Tue 22:23:21 42.4364 -81.0219 86° East 462 532 37,000  Level Cleveland Center
Tue 22:24:21 42.4433 -80.8506 87° East 462 532 37,000  Level Cleveland Center
Tue 22:25:21 42.4497 -80.6761 87° East 462 532 37,000  Level Cleveland Center
Tue 22:26:21 42.4539 -80.5017 88° East 462 532 37,000  Level Cleveland Center
Tue 22:27:21 42.4600 -80.3300 87° East 462 532 37,000  Level Cleveland Center
Tue 22:28:21 42.4656 -80.1356 88° East 462 532 37,000  Level Cleveland Center
Tue 22:29:21 42.4753 -79.9667 85° East 457 526 37,000  Level Cleveland Center
Tue 22:30:21 42.4783 -79.7922 89° East 457 526 37,000  Level Cleveland Center
Tue 22:31:21 42.4853 -79.6175 87° East 457 526 37,000  Level Cleveland Center
Tue 22:32:21 42.4900 -79.4456 88° East 457 526 37,000  Level Cleveland Center
Tue 22:33:21 42.4944 -79.2739 88° East 457 526 37,000  Level Cleveland Center
Tue 22:34:21 42.5050 -79.0989 85° East 457 526 37,000  Level Cleveland Center
Tue 22:35:21 42.5172 -78.9269 84° East 463 533 37,000  Level Cleveland Center
Tue 22:36:21 42.5269 -78.7519 86° East 463 533 37,000  Level Cleveland Center
Tue 22:37:21 42.5389 -78.5853 84° East 463 533 37,000  Level Cleveland Center
Tue 22:38:21 42.5503 -78.4131 85° East 463 533 37,000  Level Cleveland Center
Tue 22:39:21 42.5594 -78.2464 86° East 458 527 37,000  Level Cleveland Center
Tue 22:40:21 42.5706 -78.0767 85° East 458 527 37,000  Level Cleveland Center
Tue 22:41:21 42.5794 -77.9128 86° East 453 521 37,000  Level Cleveland Center
Tue 22:43:26 42.5989 -77.5803 85° East 441 507 37,000  Level Boston Center
Tue 22:44:26 42.6086 -77.4089 86° East 441 507 37,000 -950 Level Boston Center
Tue 22:45:26 42.6178 -77.2431 86° East 441 507 35,100 -2,050 Descending Boston Center
Tue 22:46:26 42.6269 -77.0717 86° East 441 507 32,900 -2,300 Descending Boston Center
Tue 22:47:26 42.6361 -76.8944 86° East 452 520 30,500 -1,950 Descending Boston Center
Tue 22:48:26 42.6450 -76.7169 86° East 464 534 29,000 -750 Descending Boston Center
Tue 22:49:26 42.6522 -76.5764 86° East 464 534 29,000  Level Boston Center
Tue 22:50:26 42.6619 -76.3681 86° East 459 528 29,000 -50 Level Boston Center
Tue 22:51:26 42.6719 -76.1906 86° East 459 528 28,900 -1,233 Descending Boston Center
Tue 22:53:26 42.6847 -75.8553 87° East 453 521 25,300 -1,867 Descending Boston Center
Tue 22:54:26 42.6914 -75.6944 87° East 441 507 23,300 -1,950 Descending Boston Center
Tue 22:55:26 42.6981 -75.5367 87° East 427 491 21,400 -1,950 Descending Boston Center
Tue 22:56:26 42.7019 -75.3842 88° East 410 472 19,400 -1,850 Descending Boston Center
Tue 22:57:26 42.7081 -75.2289 87° East 405 466 17,700 -1,800 Descending Boston Center
Tue 22:58:26 42.7139 -75.0653 87° East 400 460 15,800 -1,700 Descending Boston Center
Tue 22:59:26 42.7172 -74.9158 88° East 400 460 14,300 -1,450 Descending Boston Center
Tue 23:00:26 42.7225 -74.7661 87° East 400 460 12,900 -1,500 Descending Boston Center
Tue 23:01:26 42.7275 -74.6192 87° East 393 452 11,300 -1,096 Descending Boston Center
Tue 23:02:10 42.7336 -74.5233 85° East 369 425 11,000 -300 Descending Boston Center
Tue 23:02:26 42.7322 -74.4839 93° East 370 426 11,000  Level Boston Center
Tue 23:03:04 42.7336 -74.3961 89° East 367 422 11,000  Level Boston Center
Tue 23:03:26 42.7344 -74.3567 88° East 365 420 11,000  Level Boston Center
Tue 23:04:05 42.7381 -74.2550 87° East 371 427 11,000  Level Boston Center
Tue 23:04:26 42.7389 -74.2042 89° East 365 420 11,000 -98 Level Boston Center
Tue 23:05:06 42.7525 -74.1253 77° East 328 377 10,900 -400 Descending Boston Center
Tue 23:05:26 42.7592 -74.1028 68° East 337 388 10,600 -2,500 Descending Boston Center
Tue 23:06:06 42.7853 -74.0300 64° Northeast 266 306 8,400 -2,900 Descending Boston Center
Tue 23:06:26 42.7961 -73.9992 64° Northeast 290 334 7,700 -1,475 Descending Boston Center
Tue 23:07:07 42.8158 -73.9375 66° East 243 280 6,900 -1,400 Descending Boston Center
Tue 23:07:26 42.8264 -73.9150 57° Northeast 265 305 6,300 -2,459 Descending Boston Center
Tue 23:08:08 42.8394 -73.8672 70° East 192 221 4,400 -2,600 Descending Boston Center
Tue 23:08:26 42.8461 -73.8447 68° East 227 261 3,700 -2,300 Descending Boston Center
Tue 23:09:08 42.8256 -73.8103 129° Southeast 170 196 2,100 -500 Descending Boston Center
Tue 23:09:26 42.8700 -73.7717 32° Northeast 219 252 3,200 3,667 Climbing Boston Center

Login

Don't have an account? Register now (free) for customized features, flight alerts, and more!